Location: Goll?ig?dem
(16.6773°N, 80.7332°E)
Time: 18:13:58
(UTC+00:00)

Atlas Centaur 2 - Pass Details

Date: 19 May 2025
Orbit: 456 x 1256 km, 30.4° (Epoch: 23 June)

Event Time Altitude Azimuth Distance (km) Brightness Sun altitude
Rises 14:26:33 0° 301° (WNW) 3,451 7.1 -19.2°
Reaches altitude 10° 14:28:57 10° 304° (NW) 2,628 6.0 -19.7°
Maximum altitude 14:35:25 65° 26° (NNE) 1,166 2.8 -21.0°
Enters shadow 14:38:51 34° 96° (E) 1,771 3.4 -21.7°
